[Date Prev][Date Next][Thread Prev][Thread Next] - [Date Index][Thread Index][Author Index]

2 Line ISS Keps 12-20



ISS
1 25544U 98067A   01354.19915382  .00096883  00000-0  11573-2 0  8656
2 25544  51.6390 232.7271 0003112  44.4082 100.4337 15.60227344176106


----
Via the sarex mailing list at AMSAT.ORG courtesy of AMSAT-NA.
To unsubscribe, send "unsubscribe sarex" to Majordomo@amsat.org



AMSAT Top AMSAT Home